Watertown, SD

11:12 PM CDT on April 29, 2017 (GMT -0500)
Watertown Municipal

Weather History for KATY - February, 2013

Change the Weather History Date:

Tuesday, February 26, 2013

  Actual Average Record
Temperature  
Mean Temperature 18 °F 22 °F  
Max Temperature 24 °F 31 °F 56 °F (1902)
Min Temperature 12 °F 12 °F -18 °F (1962)
Degree Days  
Heating Degree Days 47 43  
Month to date heating degree days 1303 1243  
Since 1 July heating degree days 6273 6325  
Cooling Degree Days 0 0  
Month to date cooling degree days 0 0  
Year to date cooling degree days 0 0  
Moisture  
Dew Point 16 °F    
Average Humidity 94    
Maximum Humidity 100    
Minimum Humidity 88    
Precipitation  
Precipitation T in 0.03 in 0.48 in (2009)
Month to date precipitation 0.94 0.51  
Year to date precipitation 1.22 1.03  
Snow  
Snow T in - - ()
Month to date snowfall 11.5  
Since 1 July snowfall 24.1  
Snow Depth 15.00 in    
Sea Level Pressure  
Sea Level Pressure 29.99 in    
Wind  
Wind Speed 7 mph (ENE)    
Max Wind Speed 15 mph    
Max Gust Speed 17 mph    
Visibility 1 miles    
Events Fog , Snow    
T = Trace of Precipitation, MM = Missing Value Source: NWS Daily Summary

Daily Weather History Graph

Daily Weather History Graph

Search for Another Location

Airport or City:

Trip Planner

Search our weather history database for the weather conditions in past years. The results will help you decide how hot, cold, wet, or windy it might be!

Date:

Astronomy

Feb. 26, 2013 Rise Set
Actual Time 7:11 AM CST 6:12 PM CST
Civil Twilight 6:41 AM CST 6:42 PM CST
Nautical Twilight 6:07 AM CST 7:15 PM CST
Astronomical Twilight 5:33 AM CST 7:49 PM CST
Moon 7:36 PM CST (2/26) 7:09 AM CST (2/26)
Length of Visible Light 12h 00m
Length of Day
11h 01m
Full, 99% of the Moon is Illuminated
Feb 26
Full
Mar 4
Last Quarter
Mar 11
New
Mar 19
First Quarter
Mar 27
Full

Hourly Weather History & Observations

Time (CST) Temp. Windchill Dew Point Humidity Pressure Visibility Wind Dir Wind Speed Gust Speed Precip Events Conditions
12:02 AM 12.2 °F - 12.2 °F 100% 29.97 in 0.2 mi Calm Calm - N/A Fog Light Freezing Fog
12:53 AM 12.9 °F - 10.9 °F 92% 30.05 in 0.2 mi Calm Calm - N/A Fog Light Freezing Fog
1:51 AM 14.0 °F 3.9 °F 12.2 °F 93% 29.98 in 0.5 mi SE 6.9 mph - N/A Fog Light Freezing Fog
1:53 AM 15.1 °F 4.2 °F 12.9 °F 91% 30.06 in 0.5 mi SE 8.1 mph - N/A Fog Light Freezing Fog
2:53 AM 17.1 °F 7.6 °F 16.0 °F 96% 30.06 in 0.8 mi ESE 6.9 mph - N/A   Overcast
3:29 AM 17.6 °F 9.3 °F 15.8 °F 93% 29.94 in 1.0 mi East 5.8 mph - N/A   Overcast
3:38 AM 17.6 °F 10.7 °F 15.8 °F 93% 29.94 in 0.8 mi East 4.6 mph - N/A   Overcast
3:53 AM 17.1 °F 10.0 °F 16.0 °F 96% 30.02 in 0.8 mi SE 4.6 mph - N/A   Overcast
4:04 AM 17.6 °F 10.7 °F 15.8 °F 93% 29.94 in 1.0 mi SSE 4.6 mph - N/A   Overcast
4:11 AM 17.6 °F 12.3 °F 15.8 °F 93% 29.93 in 0.8 mi East 3.5 mph - N/A   Overcast
4:28 AM 15.8 °F 10.2 °F 15.8 °F 100% 29.94 in 1.0 mi SE 3.5 mph - N/A   Overcast
4:53 AM 16.0 °F 8.8 °F 15.1 °F 96% 30.02 in 0.5 mi ESE 4.6 mph - N/A Fog Light Freezing Fog
5:33 AM 15.8 °F 8.6 °F 14.0 °F 93% 29.93 in 1.0 mi Variable 4.6 mph - N/A   Overcast
5:42 AM 15.8 °F 8.6 °F 14.0 °F 93% 29.93 in 0.8 mi East 4.6 mph - N/A   Overcast
5:53 AM 15.1 °F - 14.0 °F 95% 30.02 in 1.0 mi Calm Calm - N/A   Overcast
6:09 AM 15.8 °F - 14.0 °F 93% 29.94 in 0.8 mi Calm Calm - N/A   Overcast
6:45 AM 14.0 °F - 12.2 °F 93% 29.93 in 1.0 mi Calm Calm - N/A   Overcast
6:53 AM 14.0 °F - 12.9 °F 95% 30.03 in 0.8 mi Calm Calm - N/A   Overcast
7:11 AM 14.0 °F 8.2 °F 12.2 °F 93% 29.93 in 1.0 mi NNE 3.5 mph - N/A   Overcast
7:20 AM 14.0 °F 6.5 °F 12.2 °F 93% 29.93 in 0.8 mi NE 4.6 mph - N/A   Overcast
7:45 AM 14.0 °F 6.5 °F 12.2 °F 93% 29.93 in 0.2 mi ENE 4.6 mph - N/A Fog Light Freezing Fog
7:53 AM 14.0 °F 8.2 °F 12.0 °F 92% 30.04 in 0.2 mi NE 3.5 mph - N/A Fog Light Freezing Fog
8:33 AM 14.0 °F 6.5 °F 12.2 °F 93% 29.93 in 0.2 mi NE 4.6 mph - N/A Fog Light Freezing Fog
8:53 AM 15.1 °F 5.2 °F 12.9 °F 91% 30.03 in 0.2 mi ENE 6.9 mph - N/A Fog Light Freezing Fog
9:41 AM 15.8 °F 10.2 °F 15.8 °F 100% 29.95 in 0.8 mi East 3.5 mph - N/A   Overcast
9:46 AM 15.8 °F - 15.8 °F 100% 29.95 in 1.5 mi Calm Calm - N/A   Overcast
9:53 AM 17.1 °F - 16.0 °F 96% 30.06 in 2.5 mi Calm Calm - N/A   Overcast
10:00 AM 17.6 °F 8.2 °F 15.8 °F 93% 29.95 in 3.0 mi SE 6.9 mph - N/A   Overcast
10:13 AM 17.6 °F 8.2 °F 15.8 °F 93% 29.96 in 1.8 mi SSE 6.9 mph - N/A   Overcast
10:21 AM 17.6 °F 9.3 °F 15.8 °F 93% 29.95 in 0.8 mi SE 5.8 mph - N/A   Overcast
10:42 AM 17.6 °F 6.4 °F 15.8 °F 93% 29.96 in 1.0 mi SSE 9.2 mph - N/A   Overcast
10:53 AM 18.0 °F 8.7 °F 16.0 °F 92% 30.06 in 0.8 mi SSE 6.9 mph - N/A   Overcast
11:26 AM 19.4 °F 11.5 °F 17.6 °F 93% 29.97 in 1.0 mi SE 5.8 mph - N/A   Overcast
11:53 AM 19.9 °F 12.1 °F 19.0 °F 96% 30.06 in 1.0 mi SE 5.8 mph - N/A   Overcast
12:53 PM 21.9 °F 11.7 °F 19.9 °F 92% 30.04 in 1.2 mi East 9.2 mph - 0.00 in Snow Light Snow
1:00 PM 21.2 °F 12.6 °F 19.4 °F 93% 29.95 in 1.5 mi East 6.9 mph - N/A   Overcast
1:11 PM 21.2 °F 14.9 °F 19.4 °F 93% 29.94 in 2.0 mi East 4.6 mph - N/A   Overcast
1:53 PM 23.0 °F 15.8 °F 21.0 °F 92% 30.02 in 2.0 mi East 5.8 mph - N/A   Overcast
2:42 PM 23.0 °F 17.0 °F 21.2 °F 93% 29.92 in 3.0 mi ENE 4.6 mph - N/A   Overcast
2:53 PM 24.1 °F 17.0 °F 21.0 °F 88% 30.01 in 3.0 mi East 5.8 mph - N/A   Overcast
3:53 PM 23.0 °F 13.1 °F 21.0 °F 92% 30.02 in 3.0 mi NE 9.2 mph - N/A   Overcast
4:53 PM 21.9 °F 12.5 °F 19.9 °F 92% 30.03 in 2.5 mi NNE 8.1 mph - N/A   Overcast
5:31 PM 21.2 °F 8.9 °F 19.4 °F 93% 29.94 in 2.5 mi North 12.7 mph - N/A   Overcast
5:53 PM 21.9 °F 10.4 °F 19.9 °F 92% 30.03 in 2.5 mi North 11.5 mph - N/A   Overcast
6:44 PM 21.2 °F 8.9 °F 19.4 °F 93% 29.94 in 3.0 mi North 12.7 mph - N/A   Overcast
6:53 PM 21.0 °F 8.1 °F 19.9 °F 96% 30.03 in 3.0 mi North 13.8 mph - N/A   Overcast
7:16 PM 21.2 °F 9.5 °F 19.4 °F 93% 29.95 in 2.5 mi North 11.5 mph - N/A   Overcast
7:34 PM 19.4 °F 6.6 °F 19.4 °F 100% 29.95 in 1.5 mi NNE 12.7 mph - N/A   Overcast
7:53 PM 19.9 °F 7.9 °F 19.0 °F 96% 30.05 in 2.0 mi NE 11.5 mph - N/A   Overcast
8:10 PM 19.4 °F 7.2 °F 19.4 °F 100% 29.96 in 1.5 mi NE 11.5 mph - N/A   Overcast
8:26 PM 19.4 °F 8.6 °F 19.4 °F 100% 29.96 in 1.2 mi NE 9.2 mph - N/A   Overcast
8:48 PM 19.4 °F 8.6 °F 19.4 °F 100% 29.97 in 0.8 mi NNE 9.2 mph - N/A   Overcast
8:53 PM 19.9 °F 10.1 °F 19.0 °F 96% 30.06 in 0.8 mi NNE 8.1 mph - N/A   Overcast
9:50 PM 19.4 °F 10.4 °F 17.6 °F 93% 29.98 in 1.5 mi North 6.9 mph - N/A   Overcast
9:53 PM 18.0 °F 9.8 °F 17.1 °F 96% 30.07 in 2.0 mi North 5.8 mph - N/A   Overcast
10:02 PM 17.6 °F 8.2 °F 17.6 °F 100% 29.97 in 1.2 mi NNW 6.9 mph - N/A   Overcast
10:27 PM 17.6 °F 7.3 °F 15.8 °F 93% 29.98 in 0.8 mi NNW 8.1 mph - N/A   Mist
10:34 PM 17.6 °F 5.7 °F 15.8 °F 93% 29.98 in 1.5 mi NNW 10.4 mph - N/A   Overcast
10:53 PM 15.1 °F 2.5 °F 14.0 °F 95% 30.07 in 0.8 mi NW 10.4 mph - N/A   Mist
11:04 PM 15.8 °F 3.4 °F 12.2 °F 86% 29.98 in 1.5 mi NW 10.4 mph - N/A   Mostly Cloudy
11:18 PM 14.0 °F 1.2 °F 12.2 °F 93% 29.98 in 2.0 mi NW 10.4 mph - N/A   Mostly Cloudy
11:25 PM 14.0 °F 1.2 °F 12.2 °F 93% 29.98 in 2.0 mi NW 10.4 mph - N/A   Scattered Clouds
11:41 PM 12.2 °F -1.0 °F 12.2 °F 100% 29.98 in 3.0 mi NW 10.4 mph - N/A   Clear
11:53 PM 12.9 °F -0.2 °F 12.0 °F 96% 30.08 in 3.0 mi NW 10.4 mph - N/A   Clear